Location: Unnamed
(23.5608°S, 46.6833°W)
Time: 05:22:34
(UTC-03:00)

Tiros 4 - Pass Details

Date: 13 December 2023
Orbit: 683 x 792 km, 48.3° (Epoch: 24 February)

Event Time Altitude Azimuth Distance (km) Brightness Sun altitude
Rises 22:31:25 0° 279° (W) 3,233 10.4 -38.4°
Enters shadow 22:31:45 - 278° (W) 3,127 10.4 -38.5°
Exits shadow 22:37:13 20° 234° (SW) 1,769 9.3 -39.0°
Maximum altitude 22:38:30 21° 214° (SW) 1,699 9.3 -39.1°
Drops below altitude 10° 22:42:42 10° 165° (SSE) 2,369 10.0 -39.5°
Sets 22:45:46 0° 150° (SSE) 3,307 10.7 -39.8°
